Weather reports worldwide

Advertisment
Cardiff, Bute Park, United Kingdom (99160): temperature & dewpoint: 23.09.2020 01:00:00 - 29.09.2020 01:00:00 (BST)Cardiff, Bute Park, United Kingdom (99160): temperature -20cm & temperature -100cm: 23.09.2020 01:00:00 - 29.09.2020 01:00:00 (BST)Cardiff, Bute Park, United Kingdom (99160): precipitation: 23.09.2020 01:00:00 - 29.09.2020 01:00:00 (BST)
Date & Time tt [°C] td [°C] tt -20cm [°C] tt -100cm [°C] rr [mm]
29.09.2020 01:00:00 13,8 13,5 - - 0,0
29.09.2020 00:00:00 14,4 14,0 - - 0,0
28.09.2020 23:00:00 14,9 14,5 - - 0,0
28.09.2020 22:00:00 15,2 14,9 - - 0,0
28.09.2020 21:00:00 15,6 15,3 - - 0,0
28.09.2020 20:00:00 15,8 15,4 - - 0,0
28.09.2020 19:00:00 15,9 15,6 - - 0,0
28.09.2020 18:00:00 16,1 15,8 - - 0,0
28.09.2020 17:00:00 15,6 15,0 - - -
28.09.2020 16:00:00 16,1 14,9 - - 0,0
28.09.2020 15:00:00 17,8 14,5 - - 0,0
28.09.2020 14:00:00 16,1 12,5 - - 0,0
28.09.2020 13:00:00 16,0 11,8 - - 0,0
28.09.2020 12:00:00 14,3 9,7 - - 0,0
28.09.2020 11:00:00 13,3 8,1 - - 0,0
28.09.2020 10:00:00 10,4 6,8 13,9 15,4 0,0
28.09.2020 09:00:00 7,8 6,8 - - 0,0
28.09.2020 08:00:00 6,4 6,0 - - 0,0
28.09.2020 07:00:00 5,4 5,3 - - 0,0
28.09.2020 06:00:00 3,6 3,4 - - 0,0
28.09.2020 05:00:00 3,3 3,0 - - 0,0
28.09.2020 04:00:00 3,7 3,4 - - 0,0
28.09.2020 03:00:00 4,2 3,7 - - 0,0
28.09.2020 02:00:00 4,8 4,1 - - 0,0
28.09.2020 01:00:00 5,9 5,0 - - 0,0
28.09.2020 00:00:00 6,3 4,9 - - 0,0
27.09.2020 23:00:00 8,1 6,0 - - 0,0
27.09.2020 22:00:00 9,2 6,3 - - 0,0
27.09.2020 21:00:00 9,7 6,2 - - 0,0
27.09.2020 20:00:00 11,5 6,0 - - 0,0
27.09.2020 19:00:00 13,4 5,8 - - 0,0
27.09.2020 18:00:00 15,5 6,3 - - 0,0
27.09.2020 17:00:00 17,5 5,9 - - 0,0
27.09.2020 16:00:00 18,4 4,3 - - 0,0
27.09.2020 15:00:00 17,9 1,1 - - 0,0
27.09.2020 14:00:00 17,1 1,5 - - 0,0
27.09.2020 13:00:00 16,5 2,8 - - 0,0
27.09.2020 12:00:00 14,9 4,3 - - 0,0
27.09.2020 11:00:00 13,8 5,2 - - 0,0
27.09.2020 10:00:00 12,0 5,7 - - 0,0
27.09.2020 09:00:00 7,2 7,2 - - 0,0
27.09.2020 08:00:00 3,3 3,0 - - 0,0
27.09.2020 07:00:00 3,2 2,8 - - 0,0
27.09.2020 06:00:00 3,8 3,3 - - 0,0
27.09.2020 05:00:00 4,4 3,6 - - 0,0
27.09.2020 04:00:00 5,7 4,7 - - 0,0
27.09.2020 03:00:00 5,8 4,1 - - 0,0
27.09.2020 02:00:00 5,5 4,0 - - 0,0
27.09.2020 01:00:00 6,7 4,5 - - 0,0
27.09.2020 00:00:00 7,3 4,4 - - 0,0
26.09.2020 23:00:00 8,2 4,6 - - 0,0
26.09.2020 22:00:00 8,1 4,9 - - 0,0
26.09.2020 21:00:00 8,8 4,5 - - 0,0
26.09.2020 20:00:00 9,6 3,9 - - 0,0
26.09.2020 19:00:00 12,0 2,6 - - 0,0
26.09.2020 18:00:00 13,2 2,2 - - 0,0
26.09.2020 17:00:00 14,3 1,7 - - 0,0
26.09.2020 16:00:00 14,7 1,3 - - 0,0
26.09.2020 15:00:00 14,4 1,0 - - 0,0
26.09.2020 14:00:00 14,3 1,5 - - 0,0
26.09.2020 13:00:00 13,4 2,5 - - 0,0
26.09.2020 12:00:00 12,6 1,7 - - 0,0
26.09.2020 11:00:00 11,9 1,1 - - 0,0
26.09.2020 10:00:00 11,0 3,4 - - 0,0
26.09.2020 09:00:00 6,8 6,4 - - 0,0
26.09.2020 08:00:00 3,5 3,1 - - 0,0
26.09.2020 07:00:00 3,6 3,0 - - 0,0
26.09.2020 06:00:00 4,4 3,5 - - 0,0
26.09.2020 05:00:00 4,1 3,4 - - 0,0
26.09.2020 04:00:00 4,6 3,5 - - 0,0
26.09.2020 03:00:00 5,8 4,2 - - 0,0
26.09.2020 02:00:00 6,7 3,8 - - 0,0
26.09.2020 01:00:00 8,9 3,4 - - 0,0
26.09.2020 00:00:00 8,5 5,0 - - 0,0
25.09.2020 23:00:00 8,9 5,2 - - 0,0
25.09.2020 22:00:00 9,3 5,2 - - 0,0
25.09.2020 21:00:00 10,4 4,9 - - 0,0
25.09.2020 20:00:00 11,1 5,1 - - 0,0
25.09.2020 19:00:00 11,9 5,4 - - 0,0
25.09.2020 18:00:00 12,8 5,1 - - 0,0
25.09.2020 17:00:00 14,2 4,0 - - 0,0
25.09.2020 16:00:00 14,1 4,6 - - 0,0
25.09.2020 15:00:00 15,1 4,1 - - 0,0
25.09.2020 14:00:00 15,5 4,6 - - 0,0
25.09.2020 13:00:00 15,1 2,5 - - 0,0
25.09.2020 12:00:00 14,4 3,3 - - 0,0
25.09.2020 11:00:00 13,3 3,9 - - 0,0
25.09.2020 10:00:00 12,0 4,6 15,4 0,5 0,0
25.09.2020 09:00:00 10,3 4,9 - - 0,0
25.09.2020 08:00:00 5,9 4,9 - - -
25.09.2020 07:00:00 7,3 4,9 - - 0,0
25.09.2020 06:00:00 7,8 4,8 - - 0,0
25.09.2020 05:00:00 7,0 5,1 - - 0,0
25.09.2020 04:00:00 6,8 4,7 - - 0,0
25.09.2020 03:00:00 7,0 4,8 - - 0,0
25.09.2020 02:00:00 7,3 5,1 - - 0,0
25.09.2020 01:00:00 7,8 5,1 - - 0,0
25.09.2020 00:00:00 8,7 5,5 - - 0,0
24.09.2020 23:00:00 9,8 5,9 - - 0,0
24.09.2020 22:00:00 10,0 5,7 - - 0,0
24.09.2020 21:00:00 11,5 5,6 - - 0,0
24.09.2020 20:00:00 12,5 4,6 - - 0,0
24.09.2020 19:00:00 12,0 5,1 - - 0,0
24.09.2020 18:00:00 12,8 4,8 - - 0,0
24.09.2020 17:00:00 14,0 5,2 - - 0,0
24.09.2020 16:00:00 14,8 3,9 - - 0,0
24.09.2020 15:00:00 14,2 5,9 - - 0,0
24.09.2020 14:00:00 13,7 5,7 - - 0,0
24.09.2020 13:00:00 14,0 5,7 - - 0,0
24.09.2020 12:00:00 12,9 6,1 - - 0,0
24.09.2020 11:00:00 13,3 6,1 - - 0,0
24.09.2020 10:00:00 12,5 7,8 16,0 - 0,0
24.09.2020 09:00:00 10,4 7,1 - - 0,2
24.09.2020 08:00:00 10,6 8,1 - - 0,0
24.09.2020 07:00:00 10,3 7,9 - - 0,2
24.09.2020 06:00:00 10,7 8,9 - - 1,8
24.09.2020 05:00:00 10,5 8,7 - - 3,6
24.09.2020 04:00:00 11,0 8,5 - - 0,0
24.09.2020 03:00:00 10,8 9,0 - - 0,2
24.09.2020 02:00:00 8,6 8,5 - - 0,0
24.09.2020 01:00:00 8,0 7,8 - - 0,0
24.09.2020 00:00:00 7,9 7,7 - - 0,0
23.09.2020 23:00:00 8,0 7,7 - - 0,0
23.09.2020 22:00:00 8,1 7,5 - - 0,0
23.09.2020 21:00:00 9,4 8,7 - - 0,2
23.09.2020 20:00:00 9,4 8,4 - - 1,8
23.09.2020 19:00:00 10,7 7,6 - - 0,4
23.09.2020 18:00:00 14,1 8,3 - - 0,0
23.09.2020 17:00:00 15,2 9,3 - - 0,0
23.09.2020 16:00:00 15,8 8,6 - - 0,0
23.09.2020 15:00:00 16,6 9,4 - - 0,0
23.09.2020 14:00:00 18,0 11,4 - - 0,0
23.09.2020 13:00:00 18,0 12,4 - - 0,0
23.09.2020 12:00:00 15,3 12,2 - - 0,0
23.09.2020 11:00:00 14,6 13,4 - - 0,2
23.09.2020 10:00:00 14,6 13,9 16,2 - 0,4
23.09.2020 09:00:00 14,2 13,2 - - 0,2
23.09.2020 08:00:00 14,4 13,2 - - 0,6
23.09.2020 07:00:00 14,4 13,0 - - 0,4
23.09.2020 06:00:00 14,7 12,8 - - 0,0
23.09.2020 05:00:00 14,5 13,4 - - 0,0
23.09.2020 04:00:00 14,8 14,0 - - 0,0
23.09.2020 03:00:00 15,0 14,0 - - 0,2
23.09.2020 02:00:00 15,0 13,6 - - 0,0
23.09.2020 01:00:00 14,5 13,8 - - 0,0

tt = temperature
td = dewpoint
tt -20cm = temperature -20cm
tt -100cm = temperature -100cm
rr = precipitation

Next stations